FW7817 Weather Reports


Display with metric or nautical units.
time (UTC)temp
F
wind
direction
speed
MPH
gust
MPH
rain 1hr
in
rain 24hr
in
rain mn
in
humidity
%
barometer
mb
20260902084840 79 209 0.0 2.0 0.00 0.00 0.00 66 1014.8
20260902084333 79 208 0.0 2.0 0.00 0.00 0.00 66 1014.9
20260902083827 79 207 0.0 1.0 0.00 0.00 0.00 66 1014.9
20260902082815 79 161 1.0 4.0 0.00 0.00 0.00 66 1014.9
20260902082310 79 150 1.0 5.0 0.00 0.00 0.00 66 1014.9
20260902081803 79 179 1.0 5.0 0.00 0.00 0.00 66 1014.8
20260902080751 79 213 0.0 2.0 0.00 0.00 0.00 65 1014.7
20260902080251 79 237 0.0 4.0 0.00 0.00 0.00 66 1014.7
20260902075249 79 205 0.0 2.0 0.00 0.00 0.00 65 1014.7
20260902074750 79 202 0.0 2.0 0.00 0.00 0.00 65 1014.7
20260902074250 79 211 0.0 5.0 0.00 0.00 0.00 65 1014.8
20260902073747 79 212 1.0 5.0 0.00 0.00 0.00 65 1014.7
20260902071745 79 198 1.0 5.0 0.00 0.00 0.00 64 1014.8
20260902070247 80 172 1.0 2.0 0.00 0.00 0.00 64 1014.8
20260902065743 80 161 1.0 3.0 0.00 0.00 0.00 64 1014.8
20260902065242 80 221 0.0 3.0 0.00 0.00 0.00 64 1014.8
20260902064743 80 208 0.0 2.0 0.00 0.00 0.00 63 1014.8
20260902064241 80 209 0.0 2.0 0.00 0.00 0.00 63 1014.8
20260902063741 80 206 0.0 2.0 0.00 0.00 0.00 63 1014.8
20260902063235 80 155 0.0 2.0 0.00 0.00 0.00 63 1014.9
20260902062729 80 145 0.0 2.0 0.00 0.00 0.00 63 1014.8
20260902062222 80 160 0.0 2.0 0.00 0.00 0.00 63 1014.9
20260902061717 80 203 0.0 2.0 0.00 0.00 0.00 63 1014.9
20260902061211 80 221 0.0 2.0 0.00 0.00 0.00 62 1014.9
20260902060705 81 186 0.0 2.0 0.00 0.00 0.00 62 1014.9
20260902060158 81 187 0.0 2.0 0.00 0.00 0.00 62 1014.9
20260902055653 81 245 0.0 2.0 0.00 0.00 0.00 62 1014.9
20260902054640 81 129 0.0 1.0 0.00 0.00 0.00 61 1014.9
20260902053629 81 126 0.0 2.0 0.00 0.00 0.00 61 1015.0
20260902053123 81 126 0.0 2.0 0.00 0.00 0.00 61 1015.0
20260902052617 82 62 0.0 2.0 0.00 0.00 0.00 61 1014.9
20260902052110 82 62 0.0 3.0 0.00 0.00 0.00 60 1015.0
20260902051604 82 61 0.0 3.0 0.00 0.00 0.00 60 1014.9
20260902051058 82 11 0.0 4.0 0.00 0.00 0.00 60 1014.9
20260902045556 82 149 1.0 3.0 0.00 0.00 0.00 59 1015.0
20260902045049 82 209 0.0 4.0 0.00 0.00 0.00 59 1015.0
20260902044549 82 149 0.0 4.0 0.00 0.00 0.00 59 1014.9
20260902044049 83 157 0.0 3.0 0.00 0.00 0.00 59 1014.8
20260902043549 83 157 1.0 3.0 0.00 0.00 0.00 58 1014.9
20260902043048 83 158 0.0 2.0 0.00 0.00 0.00 58 1014.9
20260902042043 83 161 1.0 4.0 0.00 0.00 0.00 58 1014.9
20260902041544 83 159 1.0 5.0 0.00 0.00 0.00 58 1015.0
20260902041044 83 161 1.0 5.0 0.00 0.00 0.00 58 1014.9
20260902040042 83 147 1.0 7.0 0.00 0.00 0.00 58 1015.1
20260902035546 83 190 1.0 4.0 0.00 0.00 0.00 58 1015.1
20260902034539 83 233 1.0 3.0 0.00 0.00 0.00 58 1014.9
20260902034037 83 181 1.0 6.0 0.00 0.00 0.00 57 1014.9
20260902033539 83 208 1.0 6.0 0.00 0.00 0.00 58 1014.8
20260902033033 83 178 1.0 5.0 0.00 0.00 0.00 58 1014.9
20260902032532 83 163 1.0 5.0 0.00 0.00 0.00 58 1014.9
20260902032021 83 150 1.0 7.0 0.00 0.00 0.00 58 1014.8
20260902031517 83 163 1.0 7.0 0.00 0.00 0.00 58 1014.7
20260902031009 83 153 1.0 4.0 0.00 0.00 0.00 58 1014.6
20260902030504 83 161 1.0 5.0 0.00 0.00 0.00 57 1014.6
20260902024945 84 161 1.0 5.0 0.00 0.00 0.00 57 1014.4
20260902024440 84 159 1.0 3.0 0.00 0.00 0.00 57 1014.4
20260902023933 84 148 1.0 3.0 0.00 0.00 0.00 57 1014.4
20260902023427 84 154 1.0 3.0 0.00 0.00 0.00 57 1014.3
20260902022921 85 155 1.0 4.0 0.00 0.00 0.00 57 1014.2
20260902022416 85 152 1.0 5.0 0.00 0.00 0.00 56 1014.2
20260902021909 85 155 1.0 5.0 0.00 0.00 0.00 56 1014.1
20260902021403 85 164 1.0 4.0 0.00 0.00 0.00 56 1014.0
20260902020858 85 167 1.0 5.0 0.00 0.00 0.00 56 1014.0
20260902015846 85 163 1.0 5.0 0.00 0.00 0.00 56 1014.1
20260902014833 85 166 1.0 4.0 0.00 0.00 0.00 55 1014.0
20260902014327 86 167 0.0 3.0 0.00 0.00 0.00 55 1014.0
20260902013821 86 167 1.0 4.0 0.00 0.00 0.00 55 1013.9
20260902013315 86 167 1.0 4.0 0.00 0.00 0.00 54 1013.8
20260902012809 87 167 1.0 4.0 0.00 0.00 0.00 54 1013.8
20260902012308 87 166 1.0 4.0 0.00 0.00 0.00 53 1013.8
20260902011758 87 166 1.0 4.0 0.00 0.00 0.00 53 1013.8
20260902011251 88 166 1.0 3.0 0.00 0.00 0.00 52 1013.8
20260902010746 88 166 0.0 3.0 0.00 0.00 0.00 52 1013.8
20260902010239 89 166 1.0 4.0 0.00 0.00 0.00 51 1013.9
20260902005733 89 166 1.0 4.0 0.00 0.00 0.00 50 1013.7
20260902005227 89 169 0.0 2.0 0.00 0.00 0.00 50 1013.7
20260902004721 90 169 0.0 2.0 0.00 0.00 0.00 49 1013.9
20260902004216 91 169 1.0 2.0 0.00 0.00 0.00 48 1013.8
20260902003709 91 169 1.0 4.0 0.00 0.00 0.00 47 1013.9
20260902002657 92 169 1.0 4.0 0.00 0.00 0.00 46 1013.9
20260902002151 92 165 1.0 4.0 0.00 0.00 0.00 45 1013.9
20260902001646 93 165 1.0 4.0 0.00 0.00 0.00 45 1014.0
20260902000634 93 163 1.0 3.0 0.00 0.00 0.00 45 1014.0
20260902000127 94 161 1.0 3.0 0.00 0.00 0.00 44 1013.9
20260901235621 94 161 1.0 5.0 0.00 0.00 0.00 44 1014.0
20260901234610 95 151 0.0 3.0 0.00 0.00 0.00 42 1014.0
20260901234107 95 153 0.0 5.0 0.00 0.00 0.00 42 1014.0
20260901233604 96 153 1.0 5.0 0.00 0.00 0.00 41 1014.0
20260901233105 96 153 1.0 5.0 0.00 0.00 0.00 39 1014.0
20260901232605 96 139 1.0 5.0 0.00 0.00 0.00 39 1014.1
20260901232105 97 161 1.0 4.0 0.00 0.00 0.00 40 1014.0
20260901231105 97 142 1.0 6.0 0.00 0.00 0.00 37 1014.1
20260901230605 97 200 1.0 6.0 0.00 0.00 0.00 38 1014.0
20260901230103 98 174 1.0 4.0 0.00 0.00 0.00 38 1014.0
20260901225100 98 144 1.0 7.0 0.00 0.00 0.00 35 1014.0
20260901224601 98 216 1.0 7.0 0.00 0.00 0.00 36 1014.1
20260901224059 98 107 1.0 5.0 0.00 0.00 0.00 38 1014.1
20260901223557 98 153 1.0 6.0 0.00 0.00 0.00 37 1014.1
20260901223057 99 212 2.0 8.0 0.00 0.00 0.00 36 1014.1
20260901222053 99 322 2.0 8.0 0.00 0.00 0.00 36 1014.0
20260901221552 99 182 3.0 11.0 0.00 0.00 0.00 35 1014.1
20260901221052 99 200 3.0 11.0 0.00 0.00 0.00 35 1014.1
20260901220052 99 151 2.0 9.0 0.00 0.00 0.00 34 1014.0
20260901215552 100 260 2.0 7.0 0.00 0.00 0.00 35 1014.0
20260901215052 100 159 2.0 7.0 0.00 0.00 0.00 35 1014.1
20260901214553 100 132 2.0 9.0 0.00 0.00 0.00 36 1014.1
20260901214048 100 178 3.0 11.0 0.00 0.00 0.00 36 1014.2
20260901213549 100 257 2.0 11.0 0.00 0.00 0.00 34 1014.2
20260901213049 100 97 2.0 7.0 0.00 0.00 0.00 36 1014.2
20260901212549 100 165 2.0 9.0 0.00 0.00 0.00 34 1014.3
20260901212049 100 288 2.0 9.0 0.00 0.00 0.00 33 1014.3
20260901210051 100 155 2.0 7.0 0.00 0.00 0.00 34 1014.4
20260901205551 100 147 3.0 10.0 0.00 0.00 0.00 34 1014.5
20260901205055 100 261 3.0 11.0 0.00 0.00 0.00 33 1014.6
20260901204549 101 271 2.0 11.0 0.00 0.00 0.00 33 1014.6
20260901204049 100 207 2.0 7.0 0.00 0.00 0.00 34 1014.8
20260901203548 100 140 2.0 6.0 0.00 0.00 0.00 34 1014.7
20260901203046 101 148 2.0 6.0 0.00 0.00 0.00 34 1014.9
20260901202546 101 205 2.0 9.0 0.00 0.00 0.00 35 1014.9
20260901202047 101 189 2.0 9.0 0.00 0.00 0.00 35 1015.0
20260901201546 101 219 2.0 8.0 0.00 0.00 0.00 36 1015.0
20260901201046 100 161 2.0 8.0 0.00 0.00 0.00 36 1015.1
20260901200547 100 140 2.0 12.0 0.00 0.00 0.00 35 1015.1
20260901195545 100 146 2.0 12.0 0.00 0.00 0.00 35 1015.3
20260901195044 100 186 2.0 6.0 0.00 0.00 0.00 37 1015.3
20260901194544 100 235 3.0 12.0 0.00 0.00 0.00 37 1015.5
20260901194037 100 163 3.0 12.0 0.00 0.00 0.00 35 1015.4
20260901193529 100 152 3.0 9.0 0.00 0.00 0.00 37 1015.5
20260901193024 100 299 3.0 10.0 0.00 0.00 0.00 36 1015.4
20260901192518 101 117 3.0 10.0 0.00 0.00 0.00 36 1015.5
20260901192011 100 126 2.0 8.0 0.00 0.00 0.00 37 1015.6
20260901191505 100 134 2.0 7.0 0.00 0.00 0.00 38 1015.6
20260901190959 99 148 2.0 7.0 0.00 0.00 0.00 37 1015.7
20260901190454 99 160 3.0 9.0 0.00 0.00 0.00 37 1015.6
20260901185947 100 198 3.0 11.0 0.00 0.00 0.00 36 1015.6
20260901185441 100 181 2.0 11.0 0.00 0.00 0.00 38 1015.7
20260901184935 100 282 2.0 10.0 0.00 0.00 0.00 38 1015.8
20260901184430 100 178 2.0 11.0 0.00 0.00 0.00 37 1015.7
20260901183417 99 130 2.0 11.0 0.00 0.00 0.00 40 1015.8
20260901182912 99 205 2.0 11.0 0.00 0.00 0.00 40 1015.9
20260901182406 99 195 2.0 7.0 0.00 0.00 0.00 39 1015.9
20260901181900 98 221 3.0 10.0 0.00 0.00 0.00 38 1016.0
20260901181353 99 226 2.0 8.0 0.00 0.00 0.00 39 1016.1
20260901180847 99 261 2.0 6.0 0.00 0.00 0.00 41 1016.2
20260901175836 99 160 2.0 7.0 0.00 0.00 0.00 39 1016.3
20260901175329 99 277 2.0 9.0 0.00 0.00 0.00 42 1016.3
20260901174823 98 325 2.0 9.0 0.00 0.00 0.00 44 1016.3
20260901174317 98 266 2.0 9.0 0.00 0.00 0.00 41 1016.5
20260901173812 98 173 2.0 9.0 0.00 0.00 0.00 41 1016.5
20260901172759 98 173 1.0 11.0 0.00 0.00 0.00 43 1016.7
20260901172305 98 202 1.0 4.0 0.00 0.00 0.00 44 1016.8
20260901171748 97 221 1.0 4.0 0.00 0.00 0.00 45 1016.8
20260901171241 97 132 2.0 5.0 0.00 0.00 0.00 44 1016.8
20260901170736 96 222 2.0 7.0 0.00 0.00 0.00 45 1016.7
20260901170230 96 144 2.0 10.0 0.00 0.00 0.00 45 1016.8
20260901165724 96 148 2.0 11.0 0.00 0.00 0.00 46 1016.8
20260901165217 96 196 2.0 11.0 0.00 0.00 0.00 46 1016.8
20260901164712 96 153 1.0 4.0 0.00 0.00 0.00 46 1017.0
20260901164206 95 265 2.0 4.0 0.00 0.00 0.00 46 1017.0
20260901163153 94 217 2.0 7.0 0.00 0.00 0.00 48 1017.0
20260901162648 94 227 2.0 8.0 0.00 0.00 0.00 49 1017.1
20260901161130 93 296 1.0 7.0 0.00 0.00 0.00 50 1017.1
20260901160624 91 240 1.0 11.0 0.00 0.00 0.00 52 1017.1
20260901160118 91 246 2.0 11.0 0.00 0.00 0.00 50 1017.0
20260901155612 91 298 1.0 6.0 0.00 0.00 0.00 51 1016.9
20260901155109 92 221 1.0 8.0 0.00 0.00 0.00 50 1016.9
20260901154610 91 180 2.0 8.0 0.00 0.00 0.00 53 1016.8
20260901154110 90 302 2.0 7.0 0.00 0.00 0.00 52 1016.8
20260901153610 91 191 2.0 7.0 0.00 0.00 0.00 51 1016.8
20260901153110 90 142 2.0 7.0 0.00 0.00 0.00 55 1016.8
20260901152610 89 109 2.0 7.0 0.00 0.00 0.00 52 1016.8
20260901152111 89 156 2.0 7.0 0.00 0.00 0.00 54 1016.8
20260901151110 87 133 2.0 9.0 0.00 0.00 0.00 57 1016.9
20260901150610 86 148 1.0 6.0 0.00 0.00 0.00 57 1016.8
20260901150110 86 165 1.0 6.0 0.00 0.00 0.00 56 1016.8
20260901145609 86 265 1.0 5.0 0.00 0.00 0.00 57 1016.8
20260901145110 85 161 1.0 4.0 0.00 0.00 0.00 57 1016.9
20260901144610 85 144 2.0 10.0 0.00 0.00 0.00 57 1016.9
20260901144108 85 224 1.0 10.0 0.00 0.00 0.00 57 1016.8
20260901143608 85 134 1.0 9.0 0.00 0.00 0.00 57 1016.9
20260901143108 85 271 2.0 9.0 0.00 0.00 0.00 57 1016.9
20260901142605 84 212 2.0 6.0 0.00 0.00 0.00 58 1016.9
20260901142106 84 220 2.0 6.0 0.00 0.00 0.00 59 1017.0
20260901141605 83 277 2.0 6.0 0.00 0.00 0.00 60 1017.1
20260901141106 83 141 2.0 6.0 0.00 0.00 0.00 60 1017.1
20260901140606 82 136 2.0 6.0 0.00 0.00 0.00 62 1017.1
20260901140108 81 223 2.0 6.0 0.00 0.00 0.00 64 1017.3
20260901135609 81 173 2.0 6.0 0.00 0.00 0.00 64 1017.1
20260901135108 80 155 2.0 7.0 0.00 0.00 0.00 65 1017.2
20260901134609 80 174 2.0 7.0 0.00 0.00 0.00 65 1017.3
20260901134104 79 163 1.0 4.0 0.00 0.00 0.00 66 1017.4
20260901133604 78 163 1.0 4.0 0.00 0.00 0.00 68 1017.5
20260901132601 77 236 0.0 3.0 0.00 0.00 0.00 70 1017.4
20260901132101 76 260 0.0 3.0 0.00 0.00 0.00 71 1017.3
20260901131601 76 130 1.0 2.0 0.00 0.00 0.00 71 1017.2
20260901131101 75 129 1.0 3.0 0.00 0.00 0.00 71 1017.2
20260901130601 75 150 1.0 3.0 0.00 0.00 0.00 72 1017.2
20260901130059 74 335 0.0 2.0 0.00 0.00 0.00 73 1017.1
20260901125552 74 335 0.0 3.0 0.00 0.00 0.00 73 1017.0
20260901125046 73 321 0.0 3.0 0.00 0.00 0.00 74 1017.1
20260901124540 73 140 0.0 2.0 0.00 0.00 0.00 73 1017.0
20260901124034 73 197 0.0 2.0 0.00 0.00 0.00 73 1016.9
20260901123529 73 134 0.0 3.0 0.00 0.00 0.00 73 1016.8
20260901123023 73 134 1.0 6.0 0.00 0.00 0.00 73 1016.7
20260901122517 73 138 1.0 6.0 0.00 0.00 0.00 73 1016.6
20260901122011 73 163 1.0 5.0 0.00 0.00 0.00 73 1016.7
20260901121504 73 163 1.0 3.0 0.00 0.00 0.00 73 1016.7
20260901120452 73 163 1.0 5.0 0.00 0.00 0.00 73 1016.6
20260901115454 73 150 1.0 3.0 0.00 0.00 0.00 73 1016.5
20260901114953 73 150 2.0 5.0 0.00 0.00 0.00 73 1016.5
20260901114452 73 158 1.0 5.0 0.00 0.00 0.00 73 1016.5
20260901113949 73 142 0.0 3.0 0.00 0.00 0.00 72 1016.5
20260901113449 74 123 0.0 2.0 0.00 0.00 0.00 72 1016.5
20260901112952 74 123 1.0 3.0 0.00 0.00 0.00 72 1016.7
20260901112450 74 115 0.0 3.0 0.00 0.00 0.00 71 1016.6
20260901111945 74 82 0.0 2.0 0.00 0.00 0.00 71 1016.7
20260901111444 74 331 0.0 1.0 0.00 0.00 0.00 71 1016.6
20260901110943 74 331 0.0 1.0 0.00 0.00 0.00 70 1016.6
20260901110443 74 331 0.0 2.0 0.00 0.00 0.00 70 1016.6
20260901105941 74 264 0.0 3.0 0.00 0.00 0.00 70 1016.6
20260901105439 74 264 1.0 3.0 0.00 0.00 0.00 70 1016.5
20260901104437 74 147 0.0 2.0 0.00 0.00 0.00 70 1016.3
20260901103937 74 147 1.0 2.0 0.00 0.00 0.00 69 1016.3
20260901103438 74 147 1.0 3.0 0.00 0.00 0.00 69 1016.3
20260901102937 75 244 0.0 3.0 0.00 0.00 0.00 69 1016.2
20260901102431 75 167 0.0 3.0 0.00 0.00 0.00 69 1016.2
20260901101924 75 167 0.0 3.0 0.00 0.00 0.00 70 1016.2
20260901101418 75 167 0.0 1.0 0.00 0.00 0.00 70 1016.2
20260901100913 75 167 0.0 1.0 0.00 0.00 0.00 70 1016.1
20260901100407 75 167 0.0 1.0 0.00 0.00 0.00 69 1016.0
20260901095901 75 167 0.0 1.0 0.00 0.00 0.00 69 1016.0
20260901095355 75 167 0.0 1.0 0.00 0.00 0.00 69 1015.9
20260901094849 75 165 0.0 1.0 0.00 0.00 0.00 69 1015.9
20260901094343 75 165 0.0 1.0 0.00 0.00 0.00 69 1015.8
20260901093837 75 165 0.0 1.0 0.00 0.00 0.00 69 1015.9
20260901093330 75 165 0.0 1.0 0.00 0.00 0.00 69 1015.8
20260901092825 75 165 0.0 1.0 0.00 0.00 0.00 69 1015.7
20260901091812 75 165 0.0 2.0 0.00 0.00 0.00 69 1015.7
20260901091306 75 115 0.0 1.0 0.00 0.00 0.00 69 1015.8
20260901090806 75 105 0.0 1.0 0.00 0.00 0.00 69 1015.8
20260901090255 75 105 0.0 2.0 0.00 0.00 0.00 69 1015.7
20260901085748 75 105 0.0 2.0 0.00 0.00 0.00 69 1015.6